Weather in Kozatske

Ukraine / Sumi District     51°18′06″N   33°30′43″E
temp.,
°C
wind,
m/s
gust,
m/s
humid.,
%
clouds,
%
prec.,
mm/h
press.,
hPa
HPBL,
m
24 october, sun
sun2400:00+4w39758 0.0 1019208
03:00+5wsw3965100 0.0 1019309
06:00+6w4972100 0.0 1020402
09:00+6w597798 0.1 1021602
12:00+7nw6866100 0.1 10231262
15:00+5nw5969100 0.1 10241347
18:00+5nw6969100 0.1 1025976
21:00+5nnw6107080 0.1 1027799
25 october, mon
mon2500:00+1nw49835 0.0 1029306
03:000nnw37845 0.0 1030183
06:00−1nnw338547 0.0 103262
09:00+1nnw23735 0.0 1033162
12:00+5nw22545 0.0 1034707
15:00+6wnw22484 0.0 1032848
18:00+3wsw22595 0.0 103310
21:00+2ssw22635 0.0 103311
26 october, tue
tue2600:00+1ssw33680 0.0 103334
03:000ssw34735 0.0 103351
06:000ssw35765 0.0 103274
09:00+2ssw37685 0.0 1032182
12:00+7ssw57515 0.0 1031557
15:00+9ssw57435 0.0 1029718
18:00+4s46585 0.0 102885
21:00+3ssw49615 0.0 1028158
27 october, wed
wed2700:00+2ssw410620 0.0 1028165
03:00+1ssw49650 0.0 1027153
06:00+1s48660 0.0 1026140
09:00+3ssw411590 0.0 1026276
12:00+8ssw69510 0.0 1025606
15:00+9sw674927 0.0 1023924
18:00+6ssw3560100 0.0 102378
21:00+6sw3661100 0.0 1022140
28 october, thu
thu2800:00+4wnw348211 0.0 102348
03:00+5nw2578100 0.0 1024184
06:00+6nnw2478100 0.0 1025115
09:00+5nw24885 0.0 1026138
12:00+9nw34695 0.0 1027584
15:00+10wnw34625 0.0 1026843
18:00+7wsw2376100 0.0 102627
21:00+8sw4870100 0.0 1025244